sat.trackr.live / text

‹ back to catalog

STARLINK-3637

NORAD 51799 · 2022-017AH

PAYLOAD ACTIVE UNKNOWN

§ Identity

Operator
Country
US
Launch date
2022-02-25
Launch site
AFWTR
Launch vehicle
Mass (kg)
RCS (m²)

Purposes: comms

External: N2YO · Heavens-Above · Gunter

§ Orbital elements

Epoch: 2026-05-24T23:57:42.469344Z

Period
95.44 min
Inclination
53.2151°
Eccentricity
0.0001764
Mean motion
15.08840595 rev/d
Perigee alt
538.5 km
Apogee alt
541.0 km
Semi-major
6,917.9 km
B*
4.1381e-5
RAAN
6.5544°
Arg perigee
89.8137°
Mean anomaly
270.3058°
Rev number
23,544

§ Raw data

STARLINK-36371 51799U 22017AH  26144.99840821  .00000371  00000+0  41381-4 0  99922 51799  53.2151   6.5544 0001764  89.8137 270.3058 15.08840595235446

JSON: /api/v1/satellites/51799 · /tle

For live sub-satellite position, see the globe view (requires WebGL).

§ Visibility from observer

Set your observer location to see the next 7 days of passes ≥ 10°. The values pass through the URL so the page stays shareable.

No JS? Fill the form by hand. The geolocation button needs JavaScript.